Miscellaneous Local Product
Issued by NWS North Platte, NE

Home | Current Version | Previous Version | Text Only | Print | Product List | Glossary On
Versions: 1 2 3 4 5 6 7 8 9 10 11 12 13 14 15 16 17 18 19 20 21 22 23 24 25 26 27 28 29 30 31 32 33 34 35 36 37 38 39 40 41 42 43 44 45 46 47 48 49 50
500
AXUS43 KLBF 230510
MISLBF


WESTERN AND NORTH CENTRAL NEBRASKA HOURLY WEATHER ROUNDUP
NATIONAL WEATHER SERVICE NORTH PLATTE NE
1100 PM CST WED NOV 22 2017

NOTE: "FAIR" INDICATES FEW OR NO CLOUDS BELOW 12,000 FEET WITH NO
SIGNIFICANT WEATHER AND/OR OBSTRUCTIONS TO VISIBILITY.

NOTE: STATIONS NOT REPORTING VARIABLES SUCH AS SKY/WEATHER OR
PRESSURE ARE PROVIDED BY RAWS AND APRS NETWORKS AND ARE NOT UNDER
NATIONAL WEATHER SERVICE QUALITY CONTROL.

...OBSERVATIONS IN AND NEAR THE EASTERN PANHANDLE OF NEBRASKA...

CITY           SKY/WX    TMP DP  RH WIND       PRES   REMARKS
PINE RIDGE     PTCLDY    43  35  73 CALM      30.12R
GORDON         CLOUDY    45  35  69 W7        30.11F
CHADRON        PTCLDY    44  36  73 W5        30.13S
ALLIANCE       CLOUDY    37  35  92 W12       30.16R WCI  29
SIDNEY         CLEAR     43  37  79 NW12      30.19S
CRESCENT LAKE    N/A     47  38  71 W9          N/A
$$

...OBSERVATIONS IN NORTHERN NEBRASKA AND FAR SOUTHERN SOUTH DAKOTA...

CITY           SKY/WX    TMP DP  RH WIND       PRES   REMARKS
WINNER         FAIR      49  38  65 W9        30.01S
VALENTINE      CLEAR     45  37  73 W9        30.06R
THEDFORD       CLEAR     44  35  70 W5        30.10S
AINSWORTH      CLEAR     41  35  79 W8        30.05S
O`NEILL        CLEAR     45  37  72 W6        30.01S
ORD            CLEAR     35  29  78 NW3       30.03S
BROKEN BOW     CLEAR     38  31  76 CALM      30.06S
VALENTINE NWR    N/A     48  36  62 CALM        N/A
HALSEY           N/A     46  35  66 W3          N/A
BUTTE            N/A     47  38  70 NW6         N/A
CHAMBERS         N/A     46  37  71 W7          N/A
EWING            N/A     41  34  75 W3          N/A
$$

...OBSERVATIONS IN SOUTHWEST NEBRASKA AND FAR NORTHEAST COLORADO...

CITY           SKY/WX    TMP DP  RH WIND       PRES   REMARKS
HOLYOKE        FAIR      48  37  66 W12       30.16S
IMPERIAL       CLOUDY    50  39  66 NW13      30.13R
OGALLALA       CLEAR     48  39  72 W9        30.12R
NORTH PLATTE   CLEAR     36  32  85 NW7       30.10R WCI  30
MCCOOK         CLOUDY    41  35  79 NW6       30.10R
LEXINGTON      CLEAR     37  31  81 NW8       30.08S WCI  30
STAPLETON        N/A     42  35  76 CALM        N/A
GOTHENBURG       N/A     41  32  71 CALM        N/A
CALLAWAY         N/A     43  33  69 NW3         N/A
$$

...OBSERVATIONS IN CENTRAL LINCOLN COUNTY AREA...

CITY           SKY/WX    TMP DP  RH WIND       PRES   REMARKS
N.P. AIRPORT   CLEAR     36  32  85 NW7       30.10R WCI  30
N.P. DOWNTOWN    N/A     42  36  78 CALM        N/A
N.P. SOUTHEAST   N/A     44  36  73 CALM        N/A
N.P. HILLCREST   N/A     46  36  68 NW3         N/A
$$

...SOME OBSERVATIONS FROM AROUND THE REGION...

CITY           SKY/WX    TMP DP  RH WIND       PRES   REMARKS
DENVER         PTCLDY    48  34  58 SW8       30.26S
COPPER MTN     SNOW      34  32  93 MISG      30.62S VSB 1/4
GRAND JUNCTION CLOUDY    43  31  62 SE8       30.40S
LARAMIE        CLOUDY    41  36  82 W12       30.35F
CHEYENNE       CLOUDY    48  38  68 NW7       30.28S
CASPER         CLOUDY    43  36  76 SW9       30.25S
BISMARCK       CLOUDY    30  24  78 SW3       29.99F
RAPID CITY     CLOUDY    45  35  68 W3        30.08S
PIERRE         CLEAR     42  38  85 NW7       30.00R
SIOUX FALLS    CLOUDY    31  21  66 SW3       29.93R
OMAHA          CLEAR     32  20  61 SE12      30.03F WCI  23
GRAND ISLAND   CLEAR     40  30  67 SW9       30.04F WCI  34
SCOTTSBLUFF    CLOUDY    42  36  79 NW6       30.18F
KANSAS CITY    MOCLDY    38  19  46 S14       30.12F WCI  30
HILL CITY      CLEAR     44  35  70 W6        30.09F
WICHITA        CLEAR     33  22  63 S9        30.16F WCI  25
DODGE CITY     CLOUDY    45  29  53 SW10      30.13F
OKLAHOMA CITY  CLOUDY    34  21  59 S7        30.22F WCI  28
DALLAS         CLEAR     47  22  37 CALM      30.24F
AMARILLO       CLOUDY    44  30  57 W6        30.22F
$$




USA.gov is the U.S. government's official web portal to all federal, state and local government web resources and services.